Total_Precipitation_Accumulation
2.45 2.73 2.87 3.10 3.42 3.72 3.99 4.27 4.67 4.84 4.68 4.68 4.60 4.47 4.17 4.01 3.66 3.23 2.89 2.84 2.84 3.06 3.52 3.21 3.53 3.44 3.60 3.67 3.68 4.02 4.15 3.80 3.87 3.84 3.36 2.66 2.23 2.19 2.20 2.24 2.41 2.38 2.44
2.27 2.54 2.56 2.80 3.03 3.56 4.06 4.39 4.38 4.28 4.06 4.21 4.54 4.79 4.77 4.27 3.67 3.31 3.16 2.80 2.76 2.87 3.03 3.27 3.17 3.20 3.39 3.40 3.48 3.83 3.84 3.45 3.58 3.83 3.90 3.16 2.80 2.29 1.77 2.12 2.25 2.31 2.64
1.83 2.14 2.17 2.27 2.48 2.99 3.50 3.64 3.51 3.45 3.32 3.41 3.75 4.03 4.30 4.06 3.73 3.42 3.13 2.78 2.70 2.67 2.76 2.95 2.97 2.97 2.86 3.10 3.35 3.36 3.42 3.38 3.35 3.40 3.83 3.53 3.10 2.61 2.04 1.93 2.03 2.33 2.58
1.67 1.83 1.89 1.94 1.99 2.12 2.38 2.57 2.77 2.87 2.88 2.93 3.16 3.36 3.57 3.57 3.46 3.37 3.07 2.75 2.48 2.44 2.53 2.59 2.59 2.62 2.59 2.89 2.67 2.76 3.11 3.37 3.23 3.15 3.10 3.16 3.29 3.16 2.52 2.03 1.94 2.17 2.33
1.41 1.55 1.63 1.64 1.69 1.84 2.05 2.29 2.59 2.74 2.82 2.81 2.90 3.11 3.42 3.44 3.22 3.04 3.03 2.82 2.58 2.33 2.25 2.39 2.45 2.41 2.35 2.46 2.53 2.85 2.87 3.02 3.03 3.02 3.01 3.11 3.15 2.98 2.79 2.43 2.26 2.20 1.97
1.19 1.40 1.51 1.56 1.58 1.66 1.90 2.13 2.37 2.38 2.50 2.56 2.58 2.63 2.82 2.96 2.80 2.62 2.61 2.46 2.31 2.17 2.09 2.16 2.37 2.28 2.23 2.35 2.43 2.55 2.58 2.69 2.80 2.79 2.79 3.02 2.90 2.83 2.93 2.63 2.46 2.36 2.04
1.02 1.20 1.38 1.39 1.52 1.63 1.75 1.89 2.05 2.15 2.16 2.20 2.14 2.10 2.19 2.34 2.33 2.24 2.26 2.17 2.00 1.85 1.83 1.93 2.10 2.07 2.07 2.17 2.33 2.36 2.47 2.60 2.64 2.57 2.58 2.66 2.65 2.71 2.85 2.96 2.68 2.47 2.12
0.75 0.85 1.02 1.14 1.29 1.44 1.52 1.64 1.77 1.90 1.99 2.04 2.06 2.01 1.98 2.06 2.15 2.23 2.09 2.02 1.80 1.64 1.71 1.79 1.80 1.87 1.93 1.94 2.31 2.35 2.44 2.56 2.48 2.33 2.68 2.59 2.38 2.55 2.69 2.95 3.18 2.96 2.52
0.70 0.72 0.82 0.93 0.99 1.10 1.21 1.33 1.48 1.64 1.82 1.82 1.94 1.92 1.80 1.88 2.05 2.16 2.07 1.98 1.93 1.81 1.82 1.79 1.81 1.90 2.04 2.19 2.45 2.50 2.51 2.60 2.52 2.56 2.70 2.55 2.35 2.35 2.42 2.85 3.22 3.41 3.05
0.67 0.68 0.69 0.70 0.70 0.82 1.09 1.24 1.39 1.55 1.61 1.59 1.55 1.49 1.55 1.72 1.87 1.87 1.80 1.92 2.00 2.00 1.98 1.97 1.96 1.93 2.02 2.23 2.44 2.49 2.50 2.60 2.63 2.66 2.77 2.74 2.54 2.53 2.53 2.81 3.13 3.37 3.48
0.66 0.64 0.70 0.72 0.72 0.81 1.02 1.06 1.12 1.32 1.40 1.39 1.29 1.29 1.36 1.47 1.56 1.57 1.58 1.75 1.83 1.89 1.83 1.79 1.81 1.84 1.94 2.08 2.17 2.13 2.21 2.25 2.40 2.34 2.47 2.61 2.73 2.70 2.72 2.88 3.04 3.29 3.55
0.61 0.60 0.69 0.80 0.92 1.08 1.02 0.91 0.92 0.99 1.14 1.19 1.19 1.23 1.27 1.25 1.23 1.25 1.37 1.49 1.56 1.59 1.49 1.54 1.59 1.59 1.62 1.73 1.72 1.73 1.87 2.05 2.21 2.34 2.47 2.39 2.50 2.52 2.55 2.76 3.00 3.25 3.48
0.63 0.67 0.77 0.82 0.84 0.98 1.08 0.94 0.92 0.99 1.12 1.17 1.25 1.34 1.35 1.25 1.15 1.18 1.28 1.29 1.25 1.28 1.29 1.37 1.43 1.42 1.46 1.46 1.46 1.57 1.70 1.84 2.02 2.17 2.19 2.10 2.23 2.25 2.43 2.53 2.70 2.94 3.20
0.62 0.66 0.80 0.95 0.95 0.93 1.02 0.96 0.93 1.01 1.14 1.33 1.54 1.57 1.49 1.38 1.28 1.20 1.20 1.20 1.16 1.24 1.27 1.38 1.45 1.44 1.49 1.53 1.66 1.74 1.79 1.89 1.90 1.86 1.83 1.79 1.87 2.00 2.26 2.37 2.47 2.65 2.88
0.69 0.63 0.75 0.93 1.02 1.03 1.04 1.00 1.04 1.09 1.23 1.46 1.60 1.63 1.61 1.54 1.46 1.34 1.27 1.22 1.23 1.23 1.30 1.42 1.50 1.57 1.54 1.46 1.66 1.79 1.73 1.81 1.80 1.70 1.53 1.44 1.53 1.66 1.82 1.79 2.04 2.28 2.48
0.78 0.72 0.73 0.80 0.96 1.04 1.09 1.13 1.22 1.27 1.32 1.32 1.37 1.49 1.58 1.58 1.51 1.36 1.28 1.31 1.31 1.29 1.28 1.28 1.39 1.38 1.15 1.27 1.47 1.59 1.61 1.71 1.74 1.62 1.47 1.35 1.36 1.42 1.50 1.55 1.63 1.82 2.03
0.73 0.70 0.73 0.77 0.84 0.88 0.96 1.20 1.23 1.20 1.22 1.28 1.36 1.47 1.52 1.50 1.45 1.31 1.29 1.32 1.31 1.33 1.34 1.32 1.35 1.33 1.28 1.37 1.36 1.36 1.45 1.57 1.58 1.63 1.63 1.36 1.13 1.29 1.28 1.38 1.39 1.46 1.61
0.63 0.64 0.71 0.79 0.81 0.77 0.77 0.86 1.00 1.11 1.18 1.23 1.31 1.40 1.44 1.52 1.57 1.50 1.38 1.39 1.39 1.36 1.38 1.39 1.37 1.43 1.42 1.43 1.30 1.32 1.32 1.43 1.50 1.52 1.50 1.47 1.40 1.32 1.31 1.34 1.35 1.24 1.30
0.55 0.67 0.80 0.77 0.77 0.77 0.77 0.87 1.01 1.13 1.26 1.32 1.35 1.36 1.45 1.60 1.64 1.53 1.47 1.49 1.46 1.37 1.35 1.35 1.31 1.32 1.41 1.47 1.34 1.30 1.27 1.41 1.47 1.48 1.44 1.40 1.39 1.44 1.31 1.34 1.32 1.24 1.21
0.64 0.64 0.64 0.64 0.69 0.80 0.90 0.98 1.13 1.31 1.39 1.40 1.46 1.53 1.57 1.68 1.78 1.80 1.74 1.66 1.61 1.53 1.49 1.41 1.38 1.36 1.39 1.41 1.24 1.18 1.15 1.28 1.36 1.44 1.36 1.25 1.18 1.25 1.22 1.28 1.35 1.23 1.20
0.66 0.67 0.71 0.74 0.78 0.81 0.99 1.18 1.28 1.36 1.40 1.42 1.44 1.61 1.71 1.83 2.00 2.17 2.06 2.00 1.92 1.88 1.83 1.74 1.66 1.63 1.66 1.56 1.27 1.16 1.12 1.26 1.39 1.36 1.25 1.18 1.13 1.08 1.07 1.10 1.17 1.23 1.32
0.73 0.79 0.90 0.94 0.86 0.87 1.02 1.19 1.29 1.34 1.47 1.51 1.56 1.63 1.78 1.86 2.04 2.42 2.40 2.41 2.40 2.24 2.16 2.07 1.98 1.95 1.91 1.69 1.42 1.28 1.31 1.36 1.41 1.43 1.38 1.34 1.21 1.09 1.04 0.97 1.00 1.11 1.14
0.75 0.81 0.94 1.02 1.04 1.11 1.24 1.40 1.45 1.51 1.59 1.72 1.84 1.91 1.99 2.16 2.26 2.41 2.46 2.50 2.47 2.35 2.24 2.14 1.98 1.97 1.94 1.82 1.54 1.38 1.38 1.40 1.41 1.44 1.44 1.32 1.20 1.12 1.09 1.11 1.16 1.15 1.13
0.83 0.92 1.00 1.20 1.31 1.37 1.46 1.57 1.67 1.76 1.88 2.01 2.11 2.16 2.21 2.23 2.27 2.42 2.44 2.45 2.45 2.35 2.28 2.21 2.07 2.05 2.09 1.99 1.83 1.67 1.60 1.61 1.56 1.51 1.49 1.35 1.24 1.14 1.12 1.11 1.10 1.10 1.17
1.01 1.08 1.20 1.33 1.37 1.45 1.54 1.64 1.83 2.02 2.10 2.12 2.11 2.09 2.14 2.29 2.36 2.35 2.35 2.42 2.48 2.47 2.44 2.39 2.38 2.32 2.28 2.19 2.08 1.95 1.89 1.95 1.96 1.87 1.79 1.69 1.56 1.41 1.36 1.30 1.29 1.32 1.35
1.12 1.24 1.34 1.43 1.46 1.59 1.75 1.86 2.02 2.23 2.40 2.36 2.27 2.26 2.29 2.36 2.37 2.33 2.27 2.33 2.29 2.23 2.19 2.23 2.27 2.19 2.21 2.20 2.02 1.94 1.92 1.96 1.97 1.84 1.77 1.83 1.81 1.71 1.66 1.60 1.56 1.55 1.52